Volver al catálogo

FENGYUN 1C DEB

ActivoPO
NORAD 31779·DEBRIS·🇨🇳 China

Lanzado May 10, 1999 desde Taiyuan Satellite Launch Center

Loading…

Próximos Pases (próximas 24 horas)

TLE

ActualizadoSource: Space-Track

Época: Sep 14, 2026, 13:56 UTC

1 31779U 99025CGE 26257.58101245  .00000847  00000-0  20955-3 0  9993
2 31779  99.3151 207.5133 0212408  93.5410 269.0095 14.42344533  9314

Sigue FENGYUN 1C DEB en tiempo real con AllMySat

Download on the App Store